Stations météo

réclame
Mon MeteoGroup
Woensdrecht, Pays-Bas (6340): Température de l'air & dewpoint: 19.04.2018 10:00:00 - 25.04.2018 10:00:00 (CEST)Woensdrecht, Pays-Bas (6340): Température de l'air 5cm: 19.04.2018 10:00:00 - 25.04.2018 10:00:00 (CEST)Woensdrecht, Pays-Bas (6340): Vitesse du vent & gusts: 19.04.2018 10:00:00 - 25.04.2018 10:00:00 (CEST)Woensdrecht, Pays-Bas (6340): Direction du vent: 19.04.2018 10:00:00 - 25.04.2018 10:00:00 (CEST)Woensdrecht, Pays-Bas (6340): reduced air pressure: 19.04.2018 10:00:00 - 25.04.2018 10:00:00 (CEST)Woensdrecht, Pays-Bas (6340): visibility: 19.04.2018 10:00:00 - 25.04.2018 10:00:00 (CEST)Woensdrecht, Pays-Bas (6340): Quantités de précipitations: 19.04.2018 10:00:00 - 25.04.2018 10:00:00 (CEST)
Date & Time tt [°C] td [°C] tt 5cm [°C] ff [km/h] ff [knt] fx [km/h] fx [knt] dd ppp [hPa] vv [km] rr [mm]
25.04.2018 10:00:00 11,1 8,3 11,0 21 11 36 19 W 1011,3 10 -
25.04.2018 09:00:00 10,7 7,8 10,7 26 14 40 21 W 1010,8 10 -
25.04.2018 08:00:00 10,8 8,6 10,5 22 12 43 23 WNW 1010,1 10 -
25.04.2018 07:00:00 11,5 10,3 11,3 24 13 47 25 WSW 1008,9 10 -
25.04.2018 06:00:00 11,3 10,7 11,2 28 15 47 25 WSW 1008,6 10 -
25.04.2018 05:00:00 11,4 10,9 11,4 37 20 50 27 WSW 1008,3 2,9 -
25.04.2018 04:00:00 13,3 10,2 13,1 28 15 50 27 SW 1008,2 10 -
25.04.2018 03:00:00 13,4 10,4 13,2 24 13 40 21 SW 1008,7 10 -
25.04.2018 02:00:00 13,5 10,3 13,3 24 13 36 19 SW 1008,8 10 -
25.04.2018 01:00:00 13,6 10,4 13,4 21 11 29 16 SW 1009,6 10 -
25.04.2018 00:00:00 13,7 10,4 13,4 16 9 29 16 SW 1010,5 10 -
24.04.2018 23:00:00 14,0 10,4 13,6 21 11 29 16 WSW 1011,2 10 -
24.04.2018 22:00:00 14,3 9,8 13,9 13 7 22 12 SW 1011,9 10 -
24.04.2018 21:00:00 14,3 9,4 13,9 13 7 18 10 WSW 1012,4 10 -
24.04.2018 20:00:00 14,7 9,0 14,3 15 8 29 16 SW 1012,7 10 -
24.04.2018 19:00:00 15,2 8,3 15,0 18 10 29 16 SW 1013,4 10 -
24.04.2018 18:00:00 15,5 8,6 15,9 16 9 25 14 SW 1014,0 10 -
24.04.2018 17:00:00 15,0 8,4 15,2 18 10 29 16 SW 1014,7 10 -
24.04.2018 16:00:00 15,4 8,8 16,0 21 11 32 18 SW 1015,4 10 -
24.04.2018 15:00:00 14,8 9,0 15,7 22 12 36 19 WSW 1016,2 10 -
24.04.2018 14:00:00 14,6 10,0 14,8 22 12 32 18 WSW 1016,6 10 -
24.04.2018 13:00:00 13,5 9,8 13,8 21 11 32 18 WSW 1017,1 10 -
24.04.2018 12:00:00 12,2 9,8 12,1 16 9 29 16 SW 1017,2 10 -
24.04.2018 11:00:00 11,4 9,4 11,7 18 10 32 18 SW 1017,1 10 -
24.04.2018 10:00:00 11,3 8,5 11,6 21 11 32 18 SW 1016,9 10 -
24.04.2018 09:00:00 11,2 8,3 11,0 18 10 32 18 SW 1016,6 10 -
24.04.2018 08:00:00 10,3 7,1 10,2 18 10 29 16 SW 1016,1 10 -
24.04.2018 07:00:00 10,0 6,4 9,9 18 10 29 16 SW 1016,1 10 -
24.04.2018 06:00:00 10,0 6,1 9,8 22 12 32 18 SW 1016,0 10 -
24.04.2018 05:00:00 9,9 6,1 9,5 22 12 32 18 SW 1016,0 10 -
24.04.2018 04:00:00 9,5 6,1 9,3 16 9 29 16 SW 1016,0 10 -
24.04.2018 03:00:00 9,2 5,8 8,6 18 10 29 16 SW 1016,3 10 -
24.04.2018 02:00:00 9,2 5,8 8,6 22 12 32 18 SW 1016,6 10 -
24.04.2018 01:00:00 9,5 5,9 8,9 21 11 36 19 SW 1016,9 10 -
24.04.2018 00:00:00 9,6 6,2 9,0 22 12 40 21 WSW 1017,6 10 -
23.04.2018 23:00:00 10,6 6,4 9,9 22 12 40 21 WSW 1017,4 10 -
23.04.2018 22:00:00 11,9 6,3 10,9 16 9 29 16 SW 1017,2 10 -
23.04.2018 21:00:00 12,6 6,4 11,7 21 11 32 18 WSW 1016,9 10 -
23.04.2018 20:00:00 13,8 7,0 13,4 22 12 32 18 WSW 1016,7 47 -
23.04.2018 19:00:00 13,9 8,7 13,9 16 9 25 14 W 1016,7 10 -
23.04.2018 18:00:00 14,5 8,6 14,8 18 10 29 16 W 1016,9 35 -
23.04.2018 17:00:00 15,5 7,8 16,7 22 12 36 19 W 1017,0 37 -
23.04.2018 16:00:00 15,5 7,5 17,0 22 12 32 18 WNW 1017,2 40 -
23.04.2018 15:00:00 15,2 8,6 14,7 18 10 32 18 W 1017,3 41 -
23.04.2018 14:00:00 14,9 8,8 15,5 21 11 36 19 W 1017,0 10 -
23.04.2018 13:00:00 15,3 9,2 16,3 25 14 36 19 W 1017,1 34 -
23.04.2018 12:00:00 13,2 8,3 14,0 22 12 36 19 W 1017,0 29 -
23.04.2018 11:00:00 13,2 8,9 12,6 22 12 29 16 W 1016,5 27 -
23.04.2018 10:00:00 12,8 9,4 12,7 22 12 32 18 W 1015,8 10 -
23.04.2018 09:00:00 11,9 9,2 12,5 22 12 29 16 WSW 1015,3 13 -
23.04.2018 08:00:00 11,1 9,3 10,8 14 8 22 12 WSW 1014,7 8 -
23.04.2018 07:00:00 10,2 8,6 9,0 14 8 18 10 WSW 1014,2 7 -
23.04.2018 06:00:00 9,9 8,4 9,1 13 7 22 12 WSW 1013,8 10 -
23.04.2018 05:00:00 10,7 8,4 10,0 14 8 22 12 WSW 1013,3 15 -
23.04.2018 04:00:00 11,6 6,9 10,8 18 10 32 18 WSW 1012,8 41 -
23.04.2018 03:00:00 13,3 6,7 12,7 21 11 32 18 WSW 1012,6 10 -
23.04.2018 02:00:00 13,1 7,8 12,4 16 9 25 14 WSW 1012,0 10 -
23.04.2018 01:00:00 15,4 9,3 14,0 15 8 32 18 WSW 1011,8 10 -
23.04.2018 00:00:00 16,4 10,9 15,2 13 7 25 14 WSW 1011,2 10 -
22.04.2018 23:00:00 16,6 10,9 14,3 13 7 29 16 SW 1010,7 10 -
22.04.2018 22:00:00 12,8 12,2 11,1 4 2 7 4 - 1011,0 10 -
22.04.2018 21:00:00 14,5 13,6 12,6 0 0 11 6 N 1010,2 10 -
22.04.2018 20:00:00 18,5 12,6 18,1 11 6 14 8 WNW 1009,8 23 -
22.04.2018 19:00:00 20,4 15,6 21,0 7 4 18 10 W 1009,7 13 -
22.04.2018 18:00:00 18,8 16,4 19,0 4 2 40 21 - 1009,7 5 -
22.04.2018 17:00:00 21,6 13,9 21,0 22 12 32 18 WNW 1009,4 14 -
22.04.2018 16:00:00 25,0 13,5 24,6 21 11 36 19 SW 1009,0 10 -
22.04.2018 15:00:00 26,3 13,3 27,1 16 9 32 18 SW 1009,3 10 -
22.04.2018 14:00:00 25,3 11,8 26,6 13 7 29 16 SW 1009,7 10 -
22.04.2018 13:00:00 25,0 12,1 26,4 8 4 22 12 SSE 1010,0 10 -
22.04.2018 12:00:00 23,6 12,5 25,0 11 6 22 12 S 1011,1 10 -
22.04.2018 11:00:00 20,5 12,4 21,2 9 5 22 12 SE 1011,7 10 -
22.04.2018 10:00:00 17,7 11,4 19,3 5 3 11 6 SE 1011,9 10 -
22.04.2018 09:00:00 14,0 9,9 13,8 4 2 11 6 - 1012,5 10 -
22.04.2018 08:00:00 11,4 9,3 10,5 4 2 7 4 - 1013,2 10 -
22.04.2018 07:00:00 10,1 8,0 7,6 4 2 11 6 SSE 1013,4 11 -
22.04.2018 06:00:00 11,4 8,2 9,2 5 3 11 6 E 1013,5 10 -
22.04.2018 05:00:00 11,2 8,1 9,4 11 6 18 10 E 1014,1 16 -
22.04.2018 04:00:00 11,3 8,0 8,0 11 6 14 8 E 1015,0 19 -
22.04.2018 03:00:00 11,9 8,0 7,4 8 4 11 6 E 1015,8 10 -
22.04.2018 02:00:00 12,8 8,2 9,2 11 6 14 8 E 1016,2 10 -
22.04.2018 01:00:00 13,2 8,6 9,8 9 5 14 8 E 1016,8 10 -
22.04.2018 00:00:00 14,2 9,3 9,2 9 5 11 6 E 1017,4 10 -
21.04.2018 23:00:00 13,6 9,4 9,9 8 4 11 6 E 1018,0 10 -
21.04.2018 22:00:00 15,9 9,7 10,8 8 4 11 6 ENE 1018,1 10 -
21.04.2018 21:00:00 17,4 10,6 12,9 5 3 14 8 ENE 1018,2 10 -
21.04.2018 20:00:00 20,4 10,9 19,0 7 4 14 8 NNE 1018,3 36 -
21.04.2018 19:00:00 22,1 10,4 21,9 11 6 25 14 ENE 1018,7 33 -
21.04.2018 18:00:00 22,4 10,2 22,6 14 8 22 12 ENE 1019,1 31 -
21.04.2018 17:00:00 22,5 10,4 23,4 14 8 25 14 ENE 1019,8 29 -
21.04.2018 16:00:00 22,3 10,7 23,5 14 8 22 12 E 1020,4 29 -
21.04.2018 15:00:00 22,4 11,4 23,5 11 6 22 12 - 1021,0 10 -
21.04.2018 14:00:00 21,3 12,7 23,3 9 5 18 10 ENE 1021,5 10 -
21.04.2018 13:00:00 20,0 11,5 22,1 11 6 22 12 ENE 1022,2 10 -
21.04.2018 12:00:00 19,0 12,5 20,6 13 7 22 12 ENE 1022,7 10 -
21.04.2018 11:00:00 16,7 11,9 18,5 11 6 18 10 ENE 1022,9 10 -
21.04.2018 10:00:00 15,3 11,3 16,4 13 7 22 12 E 1022,9 8 -
21.04.2018 09:00:00 13,4 11,1 13,4 15 8 22 12 ENE 1022,9 4,1 -
21.04.2018 08:00:00 10,8 9,6 9,9 8 4 11 6 ENE 1022,8 1,9 -
21.04.2018 07:00:00 8,4 7,8 6,0 4 2 7 4 ENE 1022,7 1,8 -
21.04.2018 06:00:00 8,0 7,8 4,4 4 2 4 2 NE 1022,4 1,0 -
21.04.2018 05:00:00 7,8 7,5 4,6 0 0 4 2 N 1022,6 0,5 -
21.04.2018 04:00:00 8,0 7,3 5,5 0 0 7 4 N 1022,4 1,3 -
21.04.2018 03:00:00 7,9 7,0 5,7 0 0 4 2 N 1022,6 1,9 -
21.04.2018 02:00:00 9,7 8,8 6,4 2 1 4 2 - 1022,8 2,7 -
21.04.2018 01:00:00 9,8 8,8 6,4 2 1 4 2 - 1022,9 2,6 -
21.04.2018 00:00:00 11,1 9,2 8,4 2 1 7 4 NNW 1022,7 3,0 -
20.04.2018 23:00:00 12,4 9,7 9,3 4 2 11 6 - 1022,8 4,2 -
20.04.2018 22:00:00 13,9 10,2 10,7 5 3 11 6 WNW 1022,7 5 -
20.04.2018 21:00:00 15,2 12,0 12,2 4 2 18 10 - 1022,4 5 -
20.04.2018 20:00:00 17,4 13,2 17,0 11 6 18 10 W 1022,2 9 -
20.04.2018 19:00:00 21,0 12,9 21,1 13 7 29 16 WNW 1022,1 10 -
20.04.2018 18:00:00 23,3 10,8 23,7 18 10 25 14 WNW 1022,1 36 -
20.04.2018 17:00:00 24,4 8,1 24,8 14 8 25 14 WNW 1022,3 41 -
20.04.2018 16:00:00 24,5 9,5 25,3 14 8 29 16 W 1022,5 28 -
20.04.2018 15:00:00 24,2 11,7 25,3 18 10 29 16 WNW 1022,8 16 -
20.04.2018 14:00:00 24,6 15,1 25,6 16 9 29 16 W 1022,8 10 -
20.04.2018 13:00:00 24,7 15,0 25,7 16 9 25 14 WSW 1023,0 10 -
20.04.2018 12:00:00 23,6 13,6 24,5 15 8 22 12 W 1023,0 10 -
20.04.2018 11:00:00 22,0 13,9 23,0 9 5 14 8 WSW 1023,0 10 -
20.04.2018 10:00:00 20,2 12,8 20,8 9 5 18 10 WSW 1022,7 10 -
20.04.2018 09:00:00 19,3 13,0 18,8 5 3 11 6 WSW 1022,6 10 -
20.04.2018 08:00:00 14,3 12,2 12,7 4 2 4 2 SSE 1022,7 10 -
20.04.2018 07:00:00 11,3 10,3 8,3 0 0 4 2 N 1022,6 11 -
20.04.2018 06:00:00 11,3 10,1 8,7 2 1 4 2 - 1022,6 8 -
20.04.2018 05:00:00 11,2 9,9 8,8 4 2 7 4 ENE 1022,8 7 -
20.04.2018 04:00:00 11,9 10,2 8,7 2 1 7 4 ENE 1023,1 7 -
20.04.2018 03:00:00 11,6 9,8 8,7 0 0 4 2 N 1023,3 6 -
20.04.2018 02:00:00 12,2 10,6 8,9 0 0 4 2 N 1023,7 8 -
20.04.2018 01:00:00 12,7 10,6 9,4 0 0 4 2 N 1023,6 7 -
20.04.2018 00:00:00 13,7 11,2 10,1 4 2 4 2 NE 1023,8 10 -
19.04.2018 23:00:00 15,1 12,3 11,2 0 0 4 2 N 1023,9 12 -
19.04.2018 22:00:00 16,1 11,4 12,3 2 1 7 4 - 1023,9 10 -
19.04.2018 21:00:00 19,5 12,3 15,7 0 0 11 6 N 1023,5 34 -
19.04.2018 20:00:00 24,2 10,1 22,4 7 4 18 10 NW 1023,1 43 -
19.04.2018 19:00:00 26,7 8,9 25,8 13 7 22 12 SW 1023,1 10 -
19.04.2018 18:00:00 28,5 7,3 28,2 9 5 22 12 SSW 1023,2 10 -
19.04.2018 17:00:00 28,7 7,0 28,6 13 7 29 16 S 1023,5 10 -
19.04.2018 16:00:00 28,5 7,3 28,6 11 6 29 16 SSE 1023,8 10 -
19.04.2018 15:00:00 27,7 7,4 28,3 8 4 18 10 SSE 1024,4 10 0,0
19.04.2018 14:00:00 26,2 5,7 26,9 11 6 22 12 - 1025,0 10 0,0
19.04.2018 13:00:00 25,7 7,1 26,9 13 7 22 12 S 1025,4 10 0,0
19.04.2018 12:00:00 24,3 6,3 24,4 15 8 25 14 SSE 1025,8 10 0,0
19.04.2018 11:00:00 23,4 6,8 23,8 9 5 22 12 SSE 1026,0 10 0,0
19.04.2018 10:00:00 21,4 6,7 21,7 11 6 22 12 SSE 1026,2 27 0,0

tt = Température de l'air
td = dewpoint
tt 5cm = Température de l'air 5cm
ff = Vitesse du vent
fx = gusts
dd = Direction du vent
ppp = reduced air pressure
vv = visibility
rr = Quantités de précipitations

stations d'obs. à proximité